Header for Extended Forecast Station List Page

Search by: ID | Name | Date | Parm | Value | Avg | % Avg
Sort by: ID | Name | Date | Parm | Value | Avg | % Avg

Enter search or view all records.

Click on id for station plot
#IDNameDateParmValueAvg% Avg
0LYDM8KOOTENAI-LIBBY DAM06-17-2024INFLOW (KAF)2370284383
1LEOI1KOOTENAI-AT LEONIA06-17-2024DISCHARGE (KAF)2059275675
2BFEI1KOOTENAI-AT BONNERS FERRY06-17-2024STAGE (FT)MMM
3FCFM8NF FLATHEAD-NEAR COLUMBIA FALLS06-17-2024DISCHARGE (KAF)43056976
4WGCM8MF FLATHEAD-NEAR WEST GLACIER06-17-2024DISCHARGE (KAF)36852171
5HHWM8SF FLATHEAD-HUNGRY HORSE DAM06-17-2024INFLOW (KAF)37852872
6CFMM8FLATHEAD-AT COLUMBIA FALLS06-17-2024DISCHARGE (KAF)1679191688
7DLGM8CLARK FORK-AT DEER LODGE06-17-2024DISCHARGE (KAF)174240
8DRMM8CLARK FORK-NR DRUMMOND06-17-2024DISCHARGE (KAF)7412260
9RCCM8ROCK CREEK-NEAR CLINTON06-17-2024DISCHARGE (KAF)7510968
10BONM8BLACKFOOT-NEAR BONNER06-17-2024DISCHARGE (KAF)13326650
11ABOM8CLARK FORK-ABOVE MISSOULA06-17-2024DISCHARGE (KAF)29453955
12BITM8BITTERROOT-NEAR MISSOULA06-17-2024DISCHARGE (KAF)29941073
13BELM8CLARK FORK-BELOW MISSOULA06-17-2024DISCHARGE (KAF)59396861
14STRM8ST. REGIS-NEAR ST. REGIS06-17-2024DISCHARGE (KAF)375172
15SRGM8CLARK FORK-AT ST REGIS06-17-2024DISCHARGE (KAF)792125363
16KERM8FLATHEAD-SELI’Š KSANKA QLISPE’ DAM06-17-2024INFLOW (KAF)1845229380
17NOXM8CLARK FORK-NOXON RAPIDS DAM06-17-2024INFLOW (KAF)3080397677
18CABI1CLARK FORK-CABINET GORGE DAM06-17-2024INFLOW (KAF)3385438177
19PRTI1PRIEST-NEAR PRIEST RIVER06-17-2024DISCHARGE (KAF)201185109
20ALFW1PEND OREILLE-ALBENI FALLS DAM06-17-2024INFLOW (KAF)3622444781
21HOPI1PEND OREILLE-LAKE PEND OREILLE NR HOPE06-17-2024LAKE ELEVATION (FT)MMM
22COEI1COEUR D ALENE-COEUR D ALENE LAKE06-17-2024INFLOW (KAF)28132586
23SPOW1SPOKANE-AT SPOKANE06-17-2024DISCHARGE (KAF)38848580
24LLKW1SPOKANE-AT LONGLAKE06-17-2024INFLOW (KAF)54063885
25SATI1ST MARIES-NEAR SANTA06-17-2024DISCHARGE (KAF)182090
26SJMI1ST JOE-AT ST MARIES06-17-2024STAGE (FT)MMM
27CIBW1COLUMBIA-AT INTL BOUNDARY06-17-2024DISCHARGE (KAF)194782472179
28LAUW1KETTLE-AT LAURIER06-17-2024DISCHARGE (KAF)385371104
29GCDW1COLUMBIA-GRAND COULEE DAM06-17-2024INFLOW (KAF)204562365286
30CHJW1COLUMBIA-CHIEF JOSEPH DAM06-17-2024INFLOW (KAF)192532365681
31TONW1OKANOGAN-NEAR TONASKET06-17-2024DISCHARGE (KAF)23653145
32PATW1METHOW-NEAR PATEROS06-17-2024DISCHARGE (KAF)16426662
33WELW1COLUMBIA-WELLS DAM06-17-2024INFLOW (KAF)196752465180
34CHDW1CHELAN-LAKE CHELAN DAM06-17-2024INFLOW (KAF)21342950
35RRHW1COLUMBIA-ROCKY REACH DAM06-17-2024INFLOW (KAF)198842535678
36ARDW1ENTIAT-NEAR ARDENVOIR06-17-2024DISCHARGE (KAF)537373
37PESW1WENATCHEE-AT PESHASTIN06-17-2024DISCHARGE (KAF)43048389
38WANW1COLUMBIA-WANAPUM DAM06-17-2024INFLOW (KAF)203852574779
39PRWW1COLUMBIA-PRIEST RAPIDS DAM06-17-2024INFLOW (KAF)203872583579
40KEDW1YAKIMA-KEECHELUS LAKE06-17-2024INFLOW (KAF)243180
41KADW1KACHESS-KACHESS DAM06-17-2024INFLOW (KAF)192771
42EASW1YAKIMA-AT EASTON06-17-2024DISCHARGE (KAF)497664
43CLUW1CLE ELUM-CLE ELUM LAKE06-17-2024INFLOW (KAF)7811966
44TNAW1TEANAWAY-BELOW FORKS06-17-2024DISCHARGE (KAF)91372
45UMTW1YAKIMA-AT UMTANUM06-17-2024DISCHARGE (KAF)56367983
46BUDW1BUMPING-BUMPING LAKE DAM06-17-2024INFLOW (KAF)223367
47CLFW1NACHES-NEAR CLIFFDEL06-17-2024DISCHARGE (KAF)8112366
48RILW1TIETON-RIMROCK LAKE NEAR RIMROCK06-17-2024INFLOW (KAF)779283
49NACW1NACHES-NEAR NACHES06-17-2024DISCHARGE (KAF)16025463
50PARW1YAKIMA-NEAR PARKER06-17-2024DISCHARGE (KAF)2212717
51KIOW1YAKIMA-AT KIONA06-17-2024DISCHARGE (KAF)30138379
52IPDI1HENRYS FORK-ISLAND PARK DAM06-17-2024INFLOW (KAF)11513982
53CHEI1FALL RIVER-NEAR CHESTER06-17-2024DISCHARGE (KAF)7711766
54ANTI1HENRYS FORK-AT ST. ANTHONY06-17-2024DISCHARGE (KAF)17732255
55TEAI1TETON-NEAR ST. ANTHONY06-17-2024DISCHARGE (KAF)250208120
56REXI1HENRYS FORK-AT REXBURG06-17-2024DISCHARGE (KAF)26732981
57JLKW4SNAKE-JACKSON LAKE AT DAM06-17-2024INFLOW (KAF)23926889
58JKSW4SNAKE-NEAR JACKSON06-17-2024DISCHARGE (KAF)11561128103
59ALPW4SNAKE-NEAR ALPINE06-17-2024DISCHARGE (KAF)13671336102
60PLDI1SF SNAKE-PALISADES DAM06-17-2024INFLOW (KAF)18151717106
61HEII1SNAKE-NEAR HEISE06-17-2024DISCHARGE (KAF)2218239393
62RIDI1WILLOW CREEK-RIRIE DAM06-17-2024INFLOW (KAF)167239
63SIFI1SNAKE-AB EAGLE ROCK NR IDAHO FALLS06-17-2024DISCHARGE (KAF)1325147390
64SHYI1SNAKE-NEAR SHELLEY06-17-2024DISCHARGE (KAF)1174132888
65SNAI1SNAKE-AT BLACKFOOT06-17-2024DISCHARGE (KAF)60774881
66BFTI1SNAKE-NEAR BLACKFOOT06-17-2024DISCHARGE (KAF)61370887
67PIHI1PORTNEUF-AT POCATELLO06-17-2024DISCHARGE (KAF)3217188
68AFRI1SNAKE-AMERICAN FALLS RESERVOIR06-17-2024INFLOW (KAF)1160124493
69MILI1SNAKE-AT MILNER06-17-2024DISCHARGE (KAF)M40M
70HOTI1BRUNEAU-NEAR HOT SPRINGS06-17-2024DISCHARGE (KAF)4334125
71SWAI1SNAKE-BELOW SWAN FALLS06-17-2024DISCHARGE (KAF)1610162699
72HWRI1BIG LOST-AT HOWELL RANCH NEAR CHILLY06-17-2024DISCHARGE (KAF)606986
73MACI1BIG LOST-MACKAY RESERVOIR NEAR MACKAY06-17-2024INFLOW (KAF)6968101
74HALI1BIG WOOD-AT HAILEY06-17-2024DISCHARGE (KAF)798197
75MAGI1BIG WOOD-MAGIC DAM06-17-2024INFLOW (KAF)384487
76LWRI1LITTLE WOOD-LITTLE WOOD DAM06-17-2024INFLOW (KAF)151788
77OWYO3OWYHEE-OWYHEE DAM06-17-2024INFLOW (KAF)8166123
78ARAI1SF BOISE-ANDERSON RANCH DAM06-17-2024INFLOW (KAF)8010675
79LUCI1BOISE-LUCKY PEAK DAM06-17-2024INFLOW (KAF)632627101
80BIGI1BOISE-AT GLENWOOD BRIDGE06-17-2024DISCHARGE (KAF)13021062
81PARI1BOISE-NEAR PARMA06-17-2024DISCHARGE (KAF)14419674
82WRMO3MALHEUR-WARM SPRINGS DAM06-17-2024INFLOW (KAF)3563
83BERO3MALHEUR-AGENCY VALLEY DAM06-17-2024INFLOW (KAF)81367
84BULO3BULLY CREEK-BULLY CREEK DAM06-17-2024INFLOW (KAF)MMM
85CSDI1NF PAYETTE-CASCADE DAM06-17-2024INFLOW (KAF)9088102
86DEDI1DEADWOOD-NEAR LOWMAN06-17-2024INFLOW (KAF)243275
87EMMI1PAYETTE-NEAR EMMETT06-17-2024DISCHARGE (KAF)40842097
88WSRI1WEISER-NEAR WEISER06-17-2024DISCHARGE (KAF)556586
89WEII1SNAKE-AT WEISER06-17-2024DISCHARGE (KAF)2490251099
90BRNI1SNAKE-BROWNLEE DAM06-17-2024INFLOW (KAF)26522645100
91WHBI1SALMON-AT WHITEBIRD06-17-2024DISCHARGE (KAF)1609192684
92TRYO3GRANDE RONDE-TROY06-17-2024DISCHARGE (KAF)25431381
93ANAW1SNAKE-NEAR ANATONE06-17-2024DISCHARGE (KAF)4776549187
94ORFI1CLEARWATER-AT OROFINO06-17-2024DISCHARGE (KAF)79897682
95DWRI1NF CLEARWATER-DWORSHAK DAM06-17-2024INFLOW (KAF)36751571
96SPDI1CLEARWATER-AT SPALDING06-17-2024DISCHARGE (KAF)2430265891
97LGDW1SNAKE-LOWER GRANITE DAM06-17-2024INFLOW (KAF)7206837286
98LGSW1SNAKE-LITTLE GOOSE DAM06-17-2024INFLOW (KAF)7206836086
99LMNW1SNAKE-LOWER MONUMENTAL DAM06-17-2024INFLOW (KAF)7213834986
100IHDW1SNAKE-ICE HARBOR DAM06-17-2024INFLOW (KAF)7218836186
101TCHW1WALLA WALLA-NEAR TOUCHET06-17-2024DISCHARGE (KAF)41132
102MCDW1COLUMBIA-MCNARY DAM06-17-2024INFLOW (KAF)280163505580
103GIBO3UMATILLA-NEAR GIBBON06-17-2024DISCHARGE (KAF)121397
104PDTO3UMATILLA-AT PENDLETON06-17-2024DISCHARGE (KAF)101565
105MYKO3MCKAY CREEK-NEAR PILOT ROCK06-17-2024DISCHARGE (KAF)1150
106UMAO3UMATILLA-NEAR UMATILLA06-17-2024DISCHARGE (KAF)3526134
107MONO3NF JOHN DAY-AT MONUMENT06-17-2024DISCHARGE (KAF)5553104
108SERO3JOHN DAY-AT SERVICE CK06-17-2024DISCHARGE (KAF)8980110
109JDAO3COLUMBIA-JOHN DAY DAM06-17-2024INFLOW (KAF)285203484382
110MODO3DESCHUTES-AT MOODY NR BIGGS06-17-2024DISCHARGE (KAF)10841087100
111TDAO3COLUMBIA-THE DALLES DAM06-17-2024INFLOW (KAF)289913520982
112PITW1KLICKITAT-NEAR PITT06-17-2024DISCHARGE (KAF)20021593
113HODO3HOOD-NEAR TUCKER BRIDGE06-17-2024DISCHARGE (KAF)9794103
114UNDW1WHITE SALMON-NEAR UNDERWOOD06-17-2024DISCHARGE (KAF)172172100
115BONO3COLUMBIA-BONNEVILLE DAM06-17-2024INFLOW (KAF)294743629681